Location: Unspecified
(44.0704°N, 88.6889°W)
Time: 17:03:52
(UTC+02:00)

Explorer 7 - All Passes

Search period start: 16 June 2019 00:00
Search period end: 26 June 2019 00:00
Orbit: 485 x 680 km, 50.3° (Epoch: 16 June)

Date Brightness Start Highest point End Pass type
(mag) Time Alt. Az. Time Alt. Az. Time Alt. Az.
16 Jun - 00:55:47 10° WNW 01:00:39 64° SW 01:05:29 10° SE daylight
16 Jun - 02:38:01 10° W 02:40:34 14° SW 02:43:06 10° SSW daylight
16 Jun - 18:17:43 10° SSW 18:21:56 42° SE 18:26:24 10° ENE daylight
16 Jun - 19:57:55 10° W 20:02:30 58° NNW 20:07:17 10° ENE daylight
16 Jun - 21:39:16 10° WNW 21:43:45 39° N 21:48:22 10° ENE daylight
16 Jun - 23:20:11 10° WNW 23:25:01 60° NNE 23:29:53 10° E daylight
17 Jun - 01:00:59 10° WNW 01:05:38 43° SW 01:10:15 10° SSE daylight
17 Jun - 16:45:14 10° SSE 16:47:07 13° SE 16:49:02 10° ESE daylight
17 Jun - 18:22:29 10° SW 18:26:54 63° SE 18:31:36 10° ENE daylight
17 Jun - 20:03:13 10° W 20:07:42 48° NNW 20:12:24 10° ENE daylight
17 Jun - 21:44:31 10° WNW 21:49:02 40° N 21:53:41 10° ENE daylight
17 Jun - 23:25:17 10° WNW 23:30:11 77° NNE 23:35:06 10° ESE daylight
18 Jun - 01:06:19 10° WNW 01:10:33 29° SW 01:14:45 10° SSE daylight
18 Jun - 16:48:40 10° S 16:51:52 20° SE 16:55:13 10° E daylight
18 Jun - 18:27:28 10° WSW 18:31:57 89° SSE 18:36:43 10° ENE daylight
18 Jun - 20:08:32 10° W 20:12:57 42° N 20:17:34 10° ENE daylight
18 Jun - 21:49:42 10° WNW 21:54:18 44° NNE 21:59:01 10° E daylight
18 Jun - 23:30:23 10° WNW 23:35:17 80° SSW 23:40:12 10° SE daylight
19 Jun - 01:11:55 10° W 01:15:23 19° SW 01:18:50 10° S daylight
19 Jun - 16:52:53 10° SSW 16:56:43 31° SE 17:00:46 10° ENE daylight
19 Jun - 18:32:36 10° WSW 18:37:04 69° NNW 18:41:49 10° ENE daylight
19 Jun - 20:13:51 10° WNW 20:18:14 39° N 20:22:48 10° ENE daylight
19 Jun - 21:54:51 10° WNW 21:59:32 52° NNE 22:04:21 10° E daylight
19 Jun - 23:35:31 10° WNW 23:40:18 56° SW 23:45:07 10° SE daylight
20 Jun - 01:18:16 10° WSW 01:20:10 12° SW 01:22:04 10° SSW daylight
20 Jun - 16:57:28 10° SW 17:01:38 47° SE 17:06:04 10° ENE daylight
20 Jun - 18:37:50 10° W 18:42:14 53° NNW 18:46:55 10° ENE daylight
20 Jun - 20:19:08 10° WNW 20:23:31 38° N 20:28:05 10° ENE daylight
20 Jun - 21:59:57 10° WNW 22:04:44 64° NNE 22:09:37 10° ESE daylight
20 Jun - 23:40:45 10° WNW 23:45:16 38° SW 23:49:48 10° SSE daylight
21 Jun - 15:24:30 10° SSE 15:26:46 14° SE 15:29:06 10° E daylight
21 Jun - 17:02:18 10° SW 17:06:37 71° SSE 17:11:14 10° ENE daylight
21 Jun - 18:43:08 10° W 18:47:28 44° NNW 18:52:04 10° ENE daylight
21 Jun - 20:24:22 10° WNW 20:28:48 41° N 20:33:24 10° E daylight
21 Jun - 22:05:02 10° WNW 22:09:51 84° NNE 22:14:48 10° ESE daylight
21 Jun - 23:46:09 10° W 23:50:10 26° SW 23:54:11 10° S daylight
22 Jun - 15:28:14 10° S 15:31:33 22° SE 15:35:02 10° E daylight
22 Jun - 17:07:20 10° WSW 17:11:41 83° NNW 17:16:21 10° ENE daylight
22 Jun - 18:48:28 10° WNW 18:52:44 40° N 18:57:14 10° ENE daylight
22 Jun - 20:29:31 10° WNW 20:34:03 46° NNE 20:38:45 10° E daylight
22 Jun - 22:10:08 10° WNW 22:14:56 72° SSW 22:19:50 10° SE daylight
22 Jun - 23:51:55 10° W 23:54:59 17° SW 23:58:04 10° S daylight
23 Jun - 15:32:35 10° SSW 15:36:25 34° SE 15:40:29 10° ENE daylight
23 Jun - 17:12:31 10° WSW 17:16:50 62° NNW 17:21:27 10° ENE daylight
23 Jun - 18:53:46 10° WNW 18:58:01 38° N 19:02:29 10° ENE daylight
23 Jun - 20:34:38 10° WNW 20:39:16 55° NNE 20:44:04 10° E daylight
23 Jun - 22:15:18 10° WNW 22:19:56 49° SW 22:24:41 10° SE daylight
23 Jun - 23:59:21 10° WSW 23:59:45 10° SW 00:00:08 10° SW daylight
24 Jun - 15:37:16 10° SW 15:41:21 53° SE 15:45:44 10° ENE daylight
24 Jun - 17:17:47 10° W 17:22:01 49° NNW 17:26:33 10° ENE daylight
24 Jun - 18:59:01 10° WNW 19:03:18 38° N 19:07:47 10° ENE daylight
24 Jun - 20:39:44 10° WNW 20:44:26 70° NNE 20:49:18 10° ESE daylight
24 Jun - 22:20:35 10° WNW 22:24:53 33° SW 22:29:16 10° SSE daylight
25 Jun - 14:03:55 10° S 14:06:26 16° SE 14:09:03 10° E daylight
25 Jun - 15:42:10 10° SW 15:46:22 79° SSE 15:50:53 10° ENE daylight
25 Jun - 17:23:05 10° W 17:27:16 42° N 17:31:42 10° ENE daylight
25 Jun - 19:04:13 10° WNW 19:08:34 41° N 19:13:07 10° E daylight
25 Jun - 20:44:49 10° WNW 20:49:33 88° SSW 20:54:26 10° ESE daylight
25 Jun - 22:26:04 10° W 22:29:46 22° SW 22:33:31 10° S daylight
